TimeEST,TemperatureF,Dew PointF,Humidity,Sea Level PressureIn,VisibilityMPH,Wind Direction,Wind SpeedMPH,Gust SpeedMPH,PrecipitationIn,Events,Conditions,WindDirDegrees,DateUTC
12:53 AM,25.0,5.0,43,30.36,10.0,SSW,10.4,-,N/A,,Overcast,200,2013-01-19 05:53:00
1:53 AM,26.1,7.0,44,30.34,10.0,South,10.4,-,N/A,,Overcast,190,2013-01-19 06:53:00
2:53 AM,28.0,9.0,45,30.30,10.0,SSW,9.2,19.6,N/A,,Overcast,200,2013-01-19 07:53:00
3:53 AM,28.0,12.0,51,30.27,10.0,SSW,10.4,18.4,N/A,,Scattered Clouds,200,2013-01-19 08:53:00
4:53 AM,28.9,14.0,54,30.23,10.0,SSW,13.8,-,N/A,,Mostly Cloudy,200,2013-01-19 09:53:00
5:53 AM,30.9,17.1,57,30.21,10.0,SSW,13.8,-,N/A,,Overcast,210,2013-01-19 10:53:00
6:53 AM,32.0,18.0,56,30.18,10.0,SW,15.0,20.7,N/A,,Clear,220,2013-01-19 11:53:00
7:53 AM,34.0,19.9,56,30.17,10.0,SW,12.7,23.0,N/A,,Clear,220,2013-01-19 12:53:00
8:53 AM,37.0,21.9,54,30.16,10.0,SW,16.1,28.8,N/A,,Partly Cloudy,220,2013-01-19 13:53:00
9:53 AM,39.0,23.0,53,30.14,10.0,SW,17.3,27.6,N/A,,Overcast,230,2013-01-19 14:53:00
10:53 AM,41.0,24.1,51,30.10,10.0,SW,13.8,28.8,N/A,,Overcast,230,2013-01-19 15:53:00
11:53 AM,44.1,23.0,43,30.06,10.0,SW,12.7,26.5,N/A,,Scattered Clouds,220,2013-01-19 16:53:00
12:53 PM,46.0,24.1,42,30.02,10.0,SW,18.4,26.5,N/A,,Clear,230,2013-01-19 17:53:00
1:53 PM,48.0,23.0,37,29.99,10.0,WSW,21.9,31.1,N/A,,Clear,240,2013-01-19 18:53:00
2:53 PM,48.9,21.9,35,29.96,10.0,SW,16.1,39.1,N/A,,Clear,220,2013-01-19 19:53:00
3:53 PM,46.9,21.9,37,29.98,10.0,SW,16.1,23.0,N/A,,Clear,230,2013-01-19 20:53:00
4:53 PM,45.0,21.9,40,29.97,10.0,WSW,17.3,21.9,N/A,,Clear,240,2013-01-19 21:53:00
5:53 PM,43.0,21.9,43,29.99,10.0,SW,9.2,-,N/A,,Clear,230,2013-01-19 22:53:00
6:53 PM,42.1,23.0,47,29.99,10.0,SW,10.4,-,N/A,,Clear,220,2013-01-19 23:53:00
7:53 PM,41.0,24.1,51,29.98,10.0,SSW,6.9,-,N/A,,Clear,200,2013-01-20 00:53:00
8:53 PM,39.0,26.1,60,29.96,10.0,SSW,4.6,-,N/A,,Clear,200,2013-01-20 01:53:00
9:53 PM,39.0,28.0,65,29.94,10.0,South,4.6,-,N/A,,Scattered Clouds,170,2013-01-20 02:53:00
10:53 PM,39.0,28.9,67,29.91,10.0,South,4.6,-,N/A,,Partly Cloudy,180,2013-01-20 03:53:00
11:53 PM,42.1,30.0,62,29.87,10.0,SSW,9.2,-,N/A,,Clear,200,2013-01-20 04:53:00